Regional Weather Roundup
Issued by NWS Kansas City/Pleasant Hill, MO

Home | Current Version | Previous Version | Text Only | Print | Product List | Glossary On
Versions: 1 2 3 4 5 6 7 8 9 10 11 12 13 14 15 16 17 18 19 20 21 22 23 24 25 26 27 28 29 30 31 32 33 34 35 36 37 38 39 40 41 42 43 44 45 46 47 48 49 50
000
ASUS43 KEAX 171111
RWREAX

WEATHER ROUNDUP FOR EASTERN KANSAS AND NORTHWEST MISSOURI
NATIONAL WEATHER SERVICE KANSAS CITY/PLEASANT HILL MO
600 AM CDT THU APR 17 2014

KSZ040-057-103>105-MOZ028-029-037-043-171200-
...KANSAS CITY METROPOLITAN AREA...

CITY           SKY/WX    TMP DP  RH WIND       PRES   REMARKS
K.C. INTL      CLOUDY    38  30  73 NW10      30.19R WCI  31
K.C. DOWNTOWN  CLOUDY    41  31  67 N9        30.19R
LEES SUMMIT    CLOUDY    39  31  72 NW7       30.19R WCI  34
OLATHE - IXD   CLOUDY    37  30  75 NW12      30.20R WCI  29
OLATHE - OJC   CLOUDY    38  30  73 N10       30.18R WCI  31
LAWRENCE       CLOUDY    38  30  73 N14       30.21R WCI  30

$$

MOZ001>008-011>017-020>025-030>033-038>040-044>046-053-054-171200-
...NORTHERN AND CENTRAL MISSOURI...

CITY           SKY/WX    TMP DP  RH WIND       PRES   REMARKS
ST. JOSEPH     CLOUDY    37  29  72 N16       30.21S WCI  28
MOSBY          CLOUDY    37  32  81 NW9       30.20R WCI  31
WARRENSBURG    CLOUDY   N/A N/A N/A NW7       30.19R
WHITEMAN AFB   CLOUDY    41  32  70 NW9       30.18R WCI  35
CLINTON        CLOUDY    43  36  75 N9        30.18R
SEDALIA        CLOUDY    42  35  76 N8        30.18R
WARSAW         NOT AVBL
MARSHALL         N/A     43  37  81 NW6       30.15
CHILLICOTHE      N/A     40  32  73 NW8       30.19R WCI  34
MOBERLY        MOCLDY    41  32  70 W5        30.17R
KIRKSVILLE     CLOUDY    40  34  79 NW13      30.15R WCI  32

$$

MOZ041-047>049-056>058-063>065-088>090-097-171200-
...EASTERN AND SOUTHERN MISSOURI...

CITY           SKY/WX    TMP DP  RH WIND       PRES   REMARKS
ST. LOUIS INTL PTCLDY    46  29  51 S3        30.17R
SPIRIT OF STL  CLEAR     37  30  75 CALM      30.16R
COLUMBIA       PTCLDY    43  31  62 SW7       30.15R
JEFFERSON CITY PTCLDY    46  31  55 S6        30.16R
MEXICO         PTCLDY    41  32  70 SW7       30.14R
HANNIBAL       MOCLDY    45  30  57 W6        30.14R
ROLLA          CLEAR     42  31  64 S12       30.14R
LEBANON        PTCLDY    43  30  61 S6        30.16R
OSAGE BEACH    PTCLDY    39  28  65 CALM      30.17R
SPRINGFIELD    PTCLDY    40  31  70 SE7       30.15R
BRANSON        PTCLDY    39  32  75 CALM      30.17S
NEVADA         CLOUDY    43  36  75 N8        30.19R
JOPLIN         MOCLDY    42  34  73 CALM      30.16R
WEST PLAINS    CLEAR     41  30  65 SW5       30.19R
MALDEN         CLEAR     39  36  87 CALM      30.23R

$$

IAZ060-094-KSZ022-034>040-054-083-096-NEZ052-066-093-171200-
...KANSAS...SOUTHEAST NEBRASKA AND IOWA...

CITY           SKY/WX    TMP DP  RH WIND       PRES   REMARKS
TOPEKA         CLOUDY    38  29  70 NW13      30.23R WCI  30
MANHATTAN      CLOUDY    36  27  69 N6        30.24R WCI  31
EMPORIA        CLOUDY    38  29  70 N13       30.18S WCI  30
CHANUTE        CLOUDY    41  32  70 N12       30.17R WCI  34
WICHITA        CLOUDY    41  29  62 N16G24    30.18R WCI  33
OMAHA          CLOUDY    33  25  72 N15       30.24R WCI  23
LINCOLN        CLOUDY    34  24  67 N14       30.27R WCI  25
FALLS CITY     CLOUDY    35  28  75 NW10      30.22R WCI  27
LAMONI         CLOUDY    35  29  78 NW16      30.18R WCI  25
DES MOINES     CLOUDY    35  28  75 NW14      30.18R WCI  26

$$




USA.gov is the U.S. government's official web portal to all federal, state and local government web resources and services.